Tracking 19176 objects as of 27-May-2018
HD Live streaming from Space Station
objects crossing your sky now

COSMOS 1190

Track COSMOS 1190 now!
10-day predictions
COSMOS 1190 is classified as:


NORAD ID: 11869
Int'l Code: 1980-056A
Perigee: 776.5 km
Apogee: 797.2 km
Inclination: 74.0 °
Period: 100.4 minutes
Semi major axis: 7157 km
RCS: 2.0919 m2 (large)
Launch date: July 1, 1980
Source: Commonwealth of Independent States (former USSR) (CIS)
Launch site: PLESETSK MISSILE AND SPACE COMPLEX (PKMTR)
aabbcc
Your satellite tracking list
Your tracking list is empty




NASA's NSSDC Master Catalog

Two Line Element Set (TLE):
1 11869U 80056A   18147.08261326 +.00000016 +00000-0 +15043-4 0  9997
2 11869 074.0476 017.3220 0014440 225.4847 134.5125 14.33594754958508
Source of the keplerian elements: AFSPC